User: anonymous   Login
Location: Unspecified
(0.0000°N, 0.0000°E)
Time: 07:23:28
(UTC+00:00)
Language:

TIGRISAT - Orbit

View from above orbital plane
View from above orbital plane
View from above satellite
View from above satellite

Ground track
Ground track

The orbit is defined by the following mean orbital elements,

1 40043U          26106.66489604 +.00000000 +00000-0 +14511-3 0 00007
2 40043  97.7747 258.1245 0048096 276.5548  83.0193 14.84902111    00
Epoch (UTC): 16 April 2026 15:57:27
Eccentricity: 0.0048096
inclination: 97.7747°
perigee height: 580 km
apogee height: 648 km
right ascension of ascending node: 258.1245°
argument of perigee: 276.5548°
revolutions per day: 14.84902111
mean anomaly at epoch: 83.0193°

The dashed part of the orbit path shows where the satellite is in the earth's shadow,  

DLR